Oxford, AL

3:46 PM CST on January 17, 2017 (GMT -0600)
Anniston Metro

Weather History for KANB - April, 2013

Change the Weather History Date:

Sunday, April 7, 2013

  Actual Average Record
Temperature  
Mean Temperature 61 °F 60 °F  
Max Temperature 77 °F 72 °F 88 °F (1959)
Min Temperature 45 °F 47 °F 28 °F (2007)
Degree Days  
Heating Degree Days 4    
Month to date heating degree days 65  
Since 1 July heating degree days 2570  
Growing Degree Days 10 (Base 50)    
Moisture  
Dew Point 46 °F    
Average Humidity 61    
Maximum Humidity 86    
Minimum Humidity 36    
Precipitation  
Precipitation 0.00 in 0.14 in 2.69 in (1973)
Month to date precipitation 1.01 0.99  
Year to date precipitation 18.96 15.55  
Sea Level Pressure  
Sea Level Pressure 30.10 in    
Wind  
Wind Speed 4 mph (South)    
Max Wind Speed 16 mph    
Max Gust Speed 25 mph    
Visibility 10 miles    
Events      
T = Trace of Precipitation, MM = Missing Value Source: NWS Daily Summary

Daily Weather History Graph

Daily Weather History Graph

Search for Another Location

Airport or City:

Trip Planner

Search our weather history database for the weather conditions in past years. The results will help you decide how hot, cold, wet, or windy it might be!

Date:

Astronomy

Apr. 07, 2013 Rise Set
Actual Time 6:22 AM CDT 7:08 PM CDT
Civil Twilight 5:57 AM CDT 7:33 PM CDT
Nautical Twilight 5:27 AM CDT 8:03 PM CDT
Astronomical Twilight 4:57 AM CDT 8:34 PM CDT
Moon 4:32 AM CDT (4/7) 4:46 PM CDT (4/7)
Length of Visible Light 13h 36m
Length of Day
12h 45m
Waning Crescent, 8% of the Moon is Illuminated
Apr 7
Waning Crescent
Apr 10
New
Apr 18
First Quarter
Apr 25
Full
May 2
Last Quarter

Hourly Weather History & Observations

Time (CDT) Temp. Dew Point Humidity Pressure Visibility Wind Dir Wind Speed Gust Speed Precip Events Conditions
12:53 AM 63.0 °F 42.1 °F 46% 30.10 in 10.0 mi South 9.2 mph - N/A   Clear
1:53 AM 55.0 °F 43.0 °F 64% 30.10 in 10.0 mi NNE 3.5 mph - N/A   Clear
2:53 AM 51.1 °F 44.1 °F 77% 30.11 in 10.0 mi Calm Calm - N/A   Clear
3:53 AM 50.0 °F 44.1 °F 80% 30.11 in 10.0 mi Calm Calm - N/A   Clear
4:53 AM 50.0 °F 43.0 °F 77% 30.12 in 10.0 mi NNE 3.5 mph - N/A   Clear
5:53 AM 46.0 °F 43.0 °F 89% 30.14 in 10.0 mi Calm Calm - N/A   Clear
6:53 AM 46.0 °F 43.0 °F 89% 30.17 in 10.0 mi Calm Calm - N/A   Clear
7:53 AM 55.0 °F 44.1 °F 67% 30.18 in 10.0 mi ENE 4.6 mph - N/A   Clear
8:53 AM 60.1 °F 46.0 °F 60% 30.18 in 10.0 mi Calm Calm - N/A   Clear
9:53 AM 64.9 °F 45.0 °F 48% 30.17 in 10.0 mi North 3.5 mph - N/A   Clear
10:53 AM 68.0 °F 46.9 °F 47% 30.17 in 10.0 mi South 8.1 mph - N/A   Partly Cloudy
11:53 AM 71.1 °F 48.0 °F 44% 30.15 in 10.0 mi SSW 10.4 mph 18.4 mph N/A   Scattered Clouds
12:53 PM 72.0 °F 48.0 °F 43% 30.10 in 10.0 mi SW 10.4 mph - N/A   Mostly Cloudy
1:53 PM 75.0 °F 48.9 °F 40% 30.08 in 10.0 mi SW 5.8 mph 19.6 mph N/A   Partly Cloudy
2:53 PM 73.9 °F 46.0 °F 37% 30.07 in 10.0 mi South 11.5 mph - N/A   Partly Cloudy
3:53 PM 73.9 °F 46.0 °F 37% 30.05 in 10.0 mi SSW 9.2 mph - N/A   Scattered Clouds
4:53 PM 75.9 °F 46.0 °F 35% 30.04 in 10.0 mi South 10.4 mph 16.1 mph N/A   Mostly Cloudy
5:53 PM 73.0 °F 46.9 °F 39% 30.04 in 10.0 mi South 8.1 mph - N/A   Partly Cloudy
6:53 PM 71.1 °F 46.9 °F 42% 30.05 in 10.0 mi South 3.5 mph - N/A   Partly Cloudy
7:53 PM 66.9 °F 48.9 °F 52% 30.05 in 10.0 mi South 3.5 mph - 0.00 in   Partly Cloudy
8:53 PM 61.0 °F 50.0 °F 67% 30.05 in 10.0 mi SSW 3.5 mph - N/A   Clear
9:53 PM 59.0 °F 52.0 °F 78% 30.06 in 10.0 mi Calm Calm - N/A   Clear
10:53 PM 57.9 °F 51.1 °F 78% 30.06 in 10.0 mi Calm Calm - N/A   Clear
11:53 PM 55.0 °F 51.1 °F 86% 30.06 in 10.0 mi Calm Calm - N/A   Partly Cloudy